Lapse_Rate
8.0 8.0 8.5 8.8 8.9 8.9 8.9 8.8 8.4 8.0 7.3 7.3 7.4 7.5 7.7 7.6 7.4 7.1 6.8 6.8 6.7 6.4 6.2 6.0 5.7 5.4 5.4 5.3 5.5 5.5 5.5 5.5 5.9 5.9 5.9 5.6 5.4 5.5 5.7 5.7 5.8 5.8 5.7
7.9 8.2 8.3 8.7 8.7 8.9 9.1 8.9 8.5 8.0 7.4 7.3 7.3 7.3 7.3 7.5 7.5 6.9 6.6 6.8 6.8 6.7 6.7 6.5 6.3 6.1 6.0 5.8 5.7 5.6 5.5 5.5 5.6 5.8 5.8 5.7 5.6 5.6 5.6 5.6 5.7 5.7 5.6
7.3 8.0 8.3 8.2 8.3 8.6 8.8 9.0 8.7 8.3 7.9 7.3 7.3 7.4 7.6 7.7 7.7 7.8 7.1 6.5 6.8 6.7 6.7 7.0 6.5 6.4 6.1 5.9 6.0 6.0 5.6 5.5 5.7 5.7 5.4 5.5 5.7 5.6 5.4 5.4 5.7 6.0 5.8
7.0 7.2 8.0 8.2 7.8 7.7 8.2 8.7 8.3 8.2 8.0 7.4 7.6 7.4 7.2 7.7 7.7 7.7 7.4 6.7 6.6 6.7 6.7 6.7 6.8 6.9 6.5 6.1 6.2 5.9 5.5 5.5 5.7 5.6 5.4 5.2 5.6 5.5 5.5 5.5 5.5 5.6 5.6
6.1 6.8 7.4 7.6 8.0 7.1 6.8 6.8 7.1 7.5 7.8 7.7 7.3 7.5 7.4 7.4 7.7 7.6 7.8 7.3 6.9 6.3 6.4 6.4 6.2 6.3 6.4 6.4 6.2 6.0 5.7 5.6 5.4 5.6 5.7 5.6 5.3 5.5 5.4 5.5 5.5 5.4 5.4
6.1 6.1 6.8 7.4 7.1 7.0 7.0 6.7 6.7 6.9 6.8 6.9 7.2 6.9 7.2 7.4 7.5 7.4 7.5 7.4 6.8 6.2 6.3 6.1 6.2 6.6 6.6 6.6 6.1 6.2 6.1 5.8 5.8 5.6 5.6 5.8 5.5 5.6 5.7 5.6 5.6 5.4 5.5
6.4 6.5 6.3 6.1 6.4 6.3 6.5 7.0 7.3 6.9 6.3 6.4 6.8 6.8 6.9 6.7 6.7 6.7 6.9 7.3 7.0 6.7 6.2 6.1 5.8 6.3 6.6 7.0 6.6 6.3 6.4 6.3 6.0 5.8 5.6 5.5 5.8 5.8 5.8 5.7 5.7 5.8 5.7
6.1 5.9 6.1 5.8 5.6 5.8 5.9 6.1 6.3 6.4 6.3 6.4 6.4 6.6 6.8 6.9 6.9 6.5 6.5 6.7 7.1 7.0 6.3 6.0 5.7 5.8 6.3 6.5 6.4 6.4 6.4 6.4 6.3 6.2 6.0 5.8 5.4 5.8 5.8 5.8 5.8 5.8 5.7
6.1 6.1 6.3 6.1 5.8 5.5 5.9 6.1 6.3 6.4 6.5 6.5 6.5 6.6 6.8 6.4 6.2 5.7 5.7 5.7 6.0 6.3 6.4 6.0 5.7 5.6 5.7 6.2 6.3 6.4 6.7 6.7 6.6 6.2 6.1 6.0 5.9 5.6 5.6 5.6 5.6 5.7 5.7
6.2 6.1 6.6 6.2 6.2 6.0 5.8 5.7 5.7 6.2 6.2 6.3 6.3 6.3 6.2 6.0 6.1 5.9 5.7 5.1 5.2 5.6 5.7 5.5 5.8 5.6 5.3 5.4 5.6 6.2 6.3 6.4 6.5 6.2 6.0 6.0 6.0 6.1 5.6 5.5 5.4 5.5 5.6
6.6 6.5 6.4 6.3 6.2 6.4 6.2 5.9 6.0 6.2 6.4 6.1 5.9 5.8 5.8 6.0 6.4 6.3 6.0 5.8 5.3 5.2 5.3 5.3 5.9 5.8 5.4 5.4 4.9 5.4 5.7 5.9 6.0 6.1 6.2 6.1 6.0 6.0 6.0 5.4 5.3 5.6 5.7
6.6 6.3 6.1 6.1 6.1 6.1 6.2 6.2 6.3 6.3 6.3 6.0 6.1 6.0 6.1 6.0 6.3 6.4 6.0 5.3 5.4 5.0 5.2 5.6 5.9 5.7 5.5 4.9 4.7 4.9 5.3 5.0 5.1 5.7 5.9 6.0 5.8 5.7 5.9 5.8 5.8 5.6 5.7
6.4 6.4 6.3 6.5 6.7 6.7 6.8 6.8 6.6 6.6 6.3 6.2 6.7 6.9 6.5 6.2 5.9 5.7 5.3 5.2 5.4 5.5 5.6 5.6 5.7 5.3 4.9 4.9 4.7 4.8 5.0 4.8 5.2 5.4 5.4 5.4 5.2 5.2 5.2 5.2 5.5 5.7 5.9
6.1 6.2 6.3 6.5 6.6 6.4 6.1 6.2 6.4 6.5 6.8 6.8 6.3 5.6 5.6 5.8 5.9 6.0 5.5 5.2 5.1 5.5 5.5 5.8 5.8 5.5 5.3 5.1 5.0 4.9 4.7 4.9 5.4 5.3 5.0 4.8 4.9 5.1 5.3 5.4 5.1 5.3 5.4
6.1 6.1 6.3 6.4 6.3 6.1 5.9 5.7 5.6 5.5 5.6 5.5 5.1 5.0 4.8 5.1 5.3 5.5 5.5 5.4 5.2 5.2 5.4 5.8 5.4 5.0 5.0 5.1 5.0 4.9 4.8 5.0 5.0 5.0 5.1 5.2 5.1 5.3 5.2 4.8 4.5 4.7 5.2
6.0 6.1 6.2 6.2 6.2 6.1 5.9 5.6 5.4 5.5 5.5 5.5 5.3 5.2 5.2 5.1 5.0 5.1 5.1 5.1 5.0 4.9 5.0 4.9 4.8 5.0 5.0 4.9 5.1 5.7 5.1 4.9 4.9 5.2 5.4 5.4 5.4 5.3 4.9 4.8 4.3 4.2 5.0
5.8 5.8 6.0 6.0 5.9 5.9 6.0 6.0 5.6 5.4 5.3 5.3 5.3 5.4 5.5 5.4 5.4 5.4 5.5 5.4 5.2 5.2 5.2 5.2 5.2 5.1 5.0 4.9 5.0 4.9 4.9 5.1 5.0 5.2 5.3 5.6 5.6 5.4 5.3 5.3 5.2 5.1 5.3
5.4 5.6 5.6 5.6 5.7 5.7 5.8 6.0 5.9 5.6 5.5 5.3 5.2 5.3 5.5 5.7 5.8 5.8 5.7 5.8 5.9 5.9 5.7 5.6 5.6 5.6 5.7 5.9 5.8 5.6 5.5 5.7 6.0 5.9 5.8 5.6 5.7 5.9 5.7 5.1 5.1 5.1 5.4
5.3 5.5 5.5 5.6 5.7 5.8 5.9 5.8 5.8 5.7 5.5 5.4 5.3 5.4 5.4 5.3 5.3 5.4 5.5 5.5 5.6 5.6 5.6 5.6 5.7 5.7 5.8 5.9 5.9 6.0 6.1 6.2 6.2 6.1 6.0 5.9 5.7 5.7 5.6 5.7 5.5 5.5 5.3
5.5 5.5 5.6 5.7 5.9 6.0 6.1 6.1 5.9 6.0 6.0 5.8 5.7 5.5 5.2 5.4 5.4 5.2 5.2 5.3 5.3 5.4 5.6 5.6 5.7 5.8 5.9 5.8 5.7 5.7 5.8 5.9 5.9 5.9 5.8 5.7 5.7 5.6 5.5 5.3 5.5 5.5 5.5
5.9 5.9 5.9 6.0 6.1 6.1 6.1 6.2 6.0 5.7 5.6 5.5 5.5 5.6 5.7 5.6 5.7 5.5 5.4 5.5 5.5 5.6 5.6 5.6 5.6 5.5 5.6 5.6 5.7 5.7 5.7 5.7 5.8 5.7 5.6 5.6 5.7 5.6 5.5 5.4 5.6 5.5 5.4
6.0 6.0 6.0 6.0 6.1 6.1 6.3 6.3 6.2 5.9 5.7 5.8 5.9 5.9 5.9 5.9 5.7 5.5 5.5 5.4 5.3 5.3 5.4 5.3 5.4 5.4 5.4 5.4 5.4 5.3 5.3 5.3 5.4 5.5 5.7 5.7 5.7 5.7 5.7 5.8 5.9 5.7 5.6
5.8 5.7 5.8 6.0 6.1 6.1 6.1 6.2 6.1 6.1 6.0 6.0 5.9 5.9 5.9 5.8 5.8 5.9 5.8 5.6 5.3 5.2 5.1 5.1 5.2 5.0 5.0 5.1 5.1 5.2 5.1 5.2 5.4 5.7 6.0 6.1 6.0 6.0 6.0 6.0 5.9 5.9 5.6
5.7 5.7 5.9 6.1 6.2 6.1 6.1 6.0 5.9 5.9 5.8 5.7 5.7 5.8 5.8 5.7 5.7 5.7 5.7 5.6 5.5 5.4 5.3 5.2 5.0 5.0 5.0 5.1 5.2 5.2 5.3 5.4 5.6 5.9 5.9 6.0 6.1 6.1 6.0 5.9 5.9 5.8 5.8
5.9 5.9 6.0 5.9 5.8 5.8 5.6 5.6 5.7 5.8 5.8 5.6 5.5 5.7 5.8 5.7 5.7 5.7 5.6 5.5 5.5 5.3 5.3 5.1 5.0 5.0 5.1 5.1 5.2 5.2 5.5 5.6 5.7 5.9 5.8 5.8 5.9 5.9 5.6 5.5 5.5 5.6 5.6
5.9 5.8 5.8 5.9 5.9 5.8 5.8 5.8 5.7 5.5 5.4 5.3 5.4 5.6 5.5 5.3 5.3 5.4 5.5 5.5 5.4 5.3 5.3 5.2 5.0 4.9 4.9 5.1 5.3 5.3 5.3 5.6 5.9 5.9 6.0 5.8 5.7 5.9 5.9 5.8 5.7 5.8 6.0
Wind_Speed
4 10 15 16 17 16 16 16 16 15 14 14 15 16 17 16 16 15 14 13 14 13 12 12 13 12 10 9 7 7 8 8 10 10 6 6 6 6 5 7 8 7 9
7 5 6 10 11 13 15 15 16 16 17 17 16 16 14 15 15 15 14 13 14 14 14 13 12 9 11 10 8 10 8 7 8 11 8 6 6 4 4 5 3 5 8
9 10 10 11 11 13 14 14 16 17 17 17 17 17 17 17 17 17 15 14 14 13 13 13 13 12 12 8 9 8 7 6 7 8 8 4 3 2 3 3 5 6 8
7 10 11 12 13 12 12 13 13 14 16 17 16 17 17 17 17 16 14 13 12 12 12 12 12 13 12 11 9 9 7 7 8 7 7 7 5 3 2 4 5 4 5
5 5 7 8 10 11 9 10 10 12 12 14 15 14 15 15 13 16 15 14 14 13 12 12 13 13 12 11 8 8 9 7 7 6 6 5 5 3 4 4 4 4 5
8 6 5 6 8 7 6 5 5 5 5 6 8 10 12 10 12 16 14 13 14 14 13 12 12 12 12 12 12 9 10 10 9 5 7 7 9 7 7 7 5 2 3
7 6 6 5 4 4 4 4 2 1 1 3 5 5 8 11 13 15 17 13 15 13 14 12 11 10 12 11 11 10 11 11 10 9 10 10 8 9 7 7 7 6 5
6 6 6 6 7 6 5 4 4 4 7 8 8 9 9 7 6 6 10 11 12 14 12 13 12 12 12 12 11 12 12 11 13 10 12 10 9 6 8 6 7 6 5
5 5 6 4 4 4 6 4 4 4 6 7 7 9 10 10 10 11 9 6 4 7 9 10 8 11 11 12 12 12 11 11 11 14 11 8 7 7 7 6 6 5 5
3 3 3 3 4 4 3 6 6 5 6 5 7 7 8 8 10 12 9 5 6 4 3 5 9 7 6 11 13 11 11 11 10 10 10 11 10 9 12 12 8 8 6
3 4 6 6 5 5 3 2 5 7 5 4 4 2 2 2 7 11 13 8 5 5 6 4 3 4 7 13 13 9 10 8 7 7 8 8 8 9 9 11 12 10 9
4 6 6 6 5 5 5 6 4 0 2 4 4 3 4 4 8 6 7 5 9 6 6 4 5 8 4 4 7 9 3 7 7 7 8 8 7 8 7 9 11 11 11
4 4 4 4 5 6 7 8 6 3 3 4 5 6 6 6 7 12 12 9 7 5 2 2 8 8 8 1 5 2 6 6 6 5 7 7 8 7 7 7 9 12 13
3 5 5 4 4 5 5 5 5 5 5 5 6 5 4 5 5 4 4 4 7 7 6 5 6 5 2 0 1 6 6 4 2 2 5 5 4 4 7 7 7 6 6
1 2 2 3 4 4 4 4 4 4 5 5 4 4 4 6 4 4 6 4 3 2 2 4 3 2 2 1 2 2 2 3 3 5 5 6 7 7 5 7 7 6 6
2 1 2 1 1 2 1 3 7 8 7 7 7 5 5 9 6 6 6 5 4 1 3 4 3 3 4 3 1 1 1 3 6 6 8 7 7 6 5 4 5 7 8
3 3 2 2 2 2 1 2 1 4 8 10 10 7 6 8 5 7 7 6 5 2 4 4 4 3 2 1 1 1 1 0 3 4 6 5 5 5 6 6 7 8 6
3 2 3 3 3 3 2 2 3 2 2 3 6 5 6 6 3 2 2 4 5 7 5 4 3 3 2 2 2 3 3 3 3 3 3 3 3 4 5 6 5 6 5
3 1 1 1 2 2 0 2 2 2 3 2 3 2 4 2 2 3 6 4 4 4 4 4 3 4 4 3 3 2 3 3 3 3 3 4 3 2 3 4 4 5 4
3 1 2 1 1 1 0 1 2 2 1 2 3 3 5 2 3 3 3 4 3 4 4 5 4 3 4 4 5 5 4 5 4 4 3 3 3 2 3 4 4 4 4
3 3 1 3 2 1 2 2 2 2 2 3 4 4 4 5 3 3 4 4 4 3 2 3 3 2 2 3 4 4 5 5 4 4 4 4 4 4 4 3 3 4 4
4 3 4 3 3 2 2 1 1 2 2 2 2 4 5 5 3 4 4 4 5 4 3 3 2 2 3 2 2 3 3 3 3 3 4 3 4 4 4 4 4 4 3
4 4 4 3 2 2 2 2 2 2 2 2 2 2 4 4 3 3 3 4 4 4 4 3 3 2 2 2 1 1 2 1 2 3 3 3 4 3 3 3 4 4 4
4 5 4 3 3 3 3 2 2 1 2 2 1 2 3 4 4 4 4 4 4 5 4 4 4 4 4 4 3 4 3 2 3 2 3 3 3 1 2 2 3 4 4
5 4 4 5 6 6 5 6 5 5 3 3 2 2 2 3 4 5 5 5 5 5 6 5 4 4 5 5 4 3 3 3 5 4 5 4 4 4 3 3 2 1 2
5 5 4 2 3 4 4 4 4 4 5 5 4 3 3 4 4 4 5 5 6 6 6 5 6 8 7 7 7 4 6 6 5 4 4 5 4 5 4 4 4 4 3
Wind_Direction
337 249 227 226 227 221 220 216 218 218 214 211 214 219 207 208 209 207 215 210 215 220 220 224 224 219 225 233 228 223 226 235 247 265 267 268 268 262 264 253 231 207 185
306 267 274 251 239 225 222 222 216 214 210 213 212 223 221 208 203 207 210 205 211 217 216 217 226 219 222 221 216 220 231 217 236 252 265 258 244 259 267 255 190 211 186
308 293 276 262 245 234 226 219 218 216 215 217 217 218 210 209 201 199 203 208 213 221 213 210 214 215 223 222 218 218 212 219 222 243 263 247 260 256 265 273 228 209 202
334 307 287 274 265 250 237 213 215 207 215 219 221 221 219 213 209 200 197 200 210 216 212 214 214 211 211 213 211 212 201 203 221 223 238 249 240 203 233 257 249 237 230
1 349 8 350 291 264 225 207 197 193 202 210 215 218 223 223 215 204 195 195 193 202 204 210 213 214 213 213 207 199 194 202 215 219 219 221 239 202 223 229 247 253 227
350 350 22 22 23 25 67 91 119 145 178 158 175 193 216 224 211 199 189 182 192 193 198 203 218 200 213 204 212 194 196 204 205 218 231 226 231 228 221 224 223 222 249
345 348 356 17 25 20 13 29 31 54 20 268 243 246 249 243 228 202 191 181 177 189 194 197 207 211 210 206 205 199 202 211 224 208 231 230 230 218 229 218 215 211 222
7 350 1 7 11 354 330 303 278 247 234 234 237 239 240 244 250 230 228 210 187 174 186 199 207 207 206 199 204 201 209 205 220 221 236 246 236 229 219 219 214 219 235
34 6 17 16 350 357 357 324 276 238 237 236 239 228 235 245 187 161 160 205 224 202 176 187 201 209 197 189 206 205 212 213 197 218 236 263 274 240 243 216 214 212 232
48 45 57 56 61 48 350 319 293 265 257 240 240 237 221 226 202 174 166 173 190 214 233 193 179 231 169 184 207 208 213 223 216 196 222 237 231 228 218 231 243 231 239
52 56 49 47 50 38 49 355 281 248 230 222 212 171 175 245 200 194 176 169 190 202 224 226 158 197 197 196 226 223 217 237 212 227 231 232 228 219 213 219 236 245 254
24 38 43 41 43 44 54 55 41 199 131 124 126 111 61 40 51 85 154 220 150 180 196 179 142 136 159 258 221 235 318 275 232 224 223 231 236 242 232 227 227 240 254
24 48 40 40 29 34 29 44 58 62 54 80 75 59 44 41 54 61 54 44 89 130 139 155 155 143 138 141 248 187 146 230 250 256 261 257 256 256 249 238 241 242 247
35 10 6 27 32 39 42 41 50 67 65 58 60 71 67 60 44 53 51 52 64 62 73 74 95 103 107 120 227 231 200 177 195 232 246 250 287 253 245 245 251 225 237
5 10 12 40 59 68 61 28 48 50 14 68 63 70 92 82 54 24 28 72 79 85 141 127 132 138 195 202 210 201 340 51 286 261 259 251 243 250 229 248 238 240 239
299 304 22 358 55 67 46 121 73 61 37 27 9 48 75 60 88 84 79 95 112 323 140 91 92 102 80 68 28 18 187 189 226 234 251 247 240 235 231 225 247 244 242
301 302 314 283 319 325 329 299 238 104 79 54 40 32 33 110 116 111 103 99 47 323 70 79 81 65 72 103 99 87 194 301 306 276 252 232 238 243 243 242 241 250 253
297 281 300 308 331 335 290 232 234 225 174 157 70 46 61 61 66 126 160 222 84 70 69 60 48 29 28 23 23 360 345 329 303 293 278 262 248 246 255 252 248 249 247
269 326 155 134 243 300 350 172 190 231 254 197 157 180 116 81 83 120 277 54 66 87 94 91 86 58 35 22 44 33 21 24 356 353 349 348 335 287 258 261 268 260 269
228 283 277 179 181 266 357 85 109 117 138 177 197 173 158 172 199 158 129 109 97 78 76 78 68 71 63 53 51 48 48 44 30 34 18 6 354 332 321 312 293 291 273
241 208 299 201 190 165 114 83 90 110 104 92 101 119 164 209 186 178 164 153 140 135 108 105 122 87 52 53 50 35 33 38 32 32 28 26 13 359 345 335 330 319 308
235 228 204 185 145 152 108 103 89 70 44 21 84 118 160 229 214 191 173 169 165 164 157 160 156 133 142 113 79 47 76 45 18 16 20 18 16 23 24 29 13 15 19
225 200 189 189 184 133 149 99 89 63 30 353 333 253 198 221 220 202 170 172 180 188 192 204 212 176 178 192 159 304 350 4 335 344 350 1 20 17 33 49 74 63 62
217 222 212 205 211 224 211 190 202 241 307 332 317 284 257 238 232 205 215 198 196 201 203 215 230 231 204 217 204 227 221 261 280 291 300 323 333 300 8 62 83 86 87
219 225 244 250 234 226 222 228 227 236 234 261 282 301 312 281 260 245 223 216 221 223 214 220 232 236 230 228 241 243 129 191 260 334 282 298 304 292 277 286 313 263 207
203 207 218 217 209 225 241 249 244 255 249 241 241 251 263 275 276 264 242 227 226 231 236 226 242 247 251 235 228 205 184 204 218 207 279 281 294 289 280 255 204 233 238